Tracking 19706 objects as of 17-Jun-2019
HD Live streaming from Space Station
objects crossing your sky now

DELTA 1 DEB

Track DELTA 1 DEB now!
10-day predictions


NORAD ID: 7180
Int'l Code: 1973-086ER
Perigee: 1,243.0 km
Apogee: 1,476.5 km
Inclination: 102.2 °
Period: 112.7 minutes
Semi major axis: 7730 km
RCS: 0.1012 m2 (medium)
Launch date: November 6, 1973
Source: United States (US)
Launch site: AIR FORCE WESTERN TEST RANGE (AFWTR)

Note: This is SATELLITE DEBRIS
aabbcc
Your satellite tracking list
Your tracking list is empty




NASA's NSSDC Master Catalog

Two Line Element Set (TLE):
1  7180U 73086ER  19167.54492524  .00000184  00000-0  10237-2 0  9997
2  7180 102.2412  34.3255 0151059 153.4546 275.0993 12.77233616114437
Source of the keplerian elements: AFSPC